Tracking 23611 objects as of 18-Sep-2021
HD Live streaming from Space Station
objects crossing your sky now
Track INSPIRATION-4

BS-3A (YURI 3A)

Track BS-3A (YURI 3A) now!
BS-3A (YURI 3A) is classified as:


NORAD ID: 20771
Int'l Code: 1990-077A
Perigee: 36,172.6 km
Apogee: 36,245.4 km
Inclination: 15.5 °
Period: 1,457.4 minutes
Semi major axis: 42579 km
RCS: 1.6597 m2 (large)
Launch date: August 28, 1990
Source: Japan (JPN)
Launch site: TANEGASHIMA SPACE CENTER (TNSTA)
aabbcc
Your satellite tracking list
Your tracking list is empty




NASA's NSSDC Master Catalog

Two Line Element Set (TLE):
1 20771U 90077A   21260.85037344  .00000006  00000-0  00000-0 0  9991
2 20771  15.4598  11.1401 0008558 215.8234 151.4460  0.98808556118459
Source of the keplerian elements: AFSPC